Location: ??????
(36.0418°N, 43.6351°E)
Time: 02:23:58
(UTC+00:00)

USA 238 - Pass Details

Date: 07 March 2021
Orbit: 994 x 1218 km, 63.4° (Epoch: 18 April)

Event Time Altitude Azimuth Distance (km) Brightness Sun altitude
Rises 02:50:35 0° 321° (NW) 4,007 6.3 -8.3°
Reaches altitude 10° 02:53:23 10° 315° (NW) 3,073 5.7 -7.7°
Maximum altitude 03:00:17 44° 246° (WSW) 1,592 4.3 -6.3°
Drops below altitude 10° 03:07:24 10° 177° (S) 3,152 6.3 -4.9°
Sets 03:10:18 0° 171° (S) 4,119 6.9 -4.3°
